• In Deutschland
  • Länderverzeichnis
  • Für 7 Tage
  • Wassertemperatur
  • Satellitenkarten
  • Wetterkarte
  • Widgets
  • user-avatar
    Anmelden

    Stündliche Wetter Canillo

    Heute, 21 Mai, Montag

    Zeit Temperatur Niederschläge Wind Luftdruck Luftfeuchtigkeit
    00:00 +5°C° 0 mm 1 m/S 616 mmHg 90%
    01:00 +5°C° 0 mm 1 m/S 616 mmHg 90%
    02:00 +5°C° 0 mm 1 m/S 616 mmHg 90%
    03:00 +4°C° 0 mm 1 m/S 615 mmHg 89%
    04:00 +5°C° 0 mm 1 m/S 616 mmHg 87%
    05:00 +6°C° 0 mm 1 m/S 616 mmHg 85%
    06:00 +7°C° 0 mm 1 m/S 616 mmHg 82%
    07:00 +9°C° 0,1 mm 1 m/S 617 mmHg 75%
    08:00 +10°C° 0,1 mm 1 m/S 617 mmHg 69%
    09:00 +11°C° 0,1 mm 1 m/S 618 mmHg 62%
    10:00 +12°C° 0,3 mm 1 m/S 618 mmHg 60%
    11:00 +13°C° 0,3 mm 1 m/S 618 mmHg 58%
    12:00 +13°C° 0 mm 2 m/S 618 mmHg 56%
    13:00 +13°C° 0,9 mm 2 m/S 618 mmHg 60%
    14:00 +13°C° 0,9 mm 1 m/S 618 mmHg 63%
    15:00 +13°C° 0,9 mm 1 m/S 617 mmHg 66%
    16:00 +12°C° 1,4 mm 1 m/S 617 mmHg 72%
    17:00 +11°C° 1,4 mm 1 m/S 617 mmHg 77%
    18:00 +10°C° 1,4 mm 1 m/S 616 mmHg 83%
    19:00 +9°C° 0,8 mm 1 m/S 616 mmHg 85%
    20:00 +8°C° 0,8 mm 1 m/S 616 mmHg 87%
    21:00 +7°C° 0,8 mm 1 m/S 616 mmHg 90%
    22:00 +6°C° 0,2 mm 1 m/S 616 mmHg 90%
    23:00 +6°C° 0,2 mm 1 m/S 616 mmHg 90%

    Morgen, 22 Mai, Dienstag

    Zeit Temperatur Niederschläge Wind Luftdruck Luftfeuchtigkeit
    00:00 +6°C° 0,2 mm 1 m/S 616 mmHg 90%
    01:00 +6°C° 0,4 mm 1 m/S 616 mmHg 90%
    02:00 +6°C° 0,4 mm 1 m/S 616 mmHg 90%
    03:00 +6°C° 0,4 mm 1 m/S 616 mmHg 90%
    04:00 +6°C° 0,1 mm 1 m/S 616 mmHg 89%
    05:00 +7°C° 0,1 mm 1 m/S 616 mmHg 88%
    06:00 +7°C° 0,1 mm 1 m/S 617 mmHg 87%
    07:00 +9°C° 0,1 mm 1 m/S 617 mmHg 80%
    08:00 +10°C° 0,1 mm 1 m/S 618 mmHg 73%
    09:00 +12°C° 0,1 mm 1 m/S 619 mmHg 66%
    10:00 +12°C° 0,8 mm 1 m/S 619 mmHg 66%
    11:00 +13°C° 0,8 mm 1 m/S 619 mmHg 65%
    12:00 +13°C° 0,8 mm 1 m/S 620 mmHg 65%
    13:00 +13°C° 1,4 mm 1 m/S 619 mmHg 68%
    14:00 +13°C° 1,4 mm 1 m/S 619 mmHg 71%
    15:00 +12°C° 1,4 mm 1 m/S 619 mmHg 74%
    16:00 +12°C° 0,6 mm 1 m/S 619 mmHg 77%
    17:00 +11°C° 0,6 mm 1 m/S 619 mmHg 79%
    18:00 +11°C° 0,6 mm 1 m/S 619 mmHg 81%
    19:00 +10°C° 0,1 mm 1 m/S 619 mmHg 84%
    20:00 +8°C° 0,1 mm 1 m/S 619 mmHg 87%
    21:00 +7°C° 0,1 mm 1 m/S 619 mmHg 91%
    22:00 +7°C° 0 mm 1 m/S 619 mmHg 90%
    23:00 +6°C° 0 mm 1 m/S 619 mmHg 90%

    übermorgen, 23 Mai, Mittwoch

    Zeit Temperatur Niederschläge Wind Luftdruck Luftfeuchtigkeit
    00:00 +6°C° 0 mm 1 m/S 619 mmHg 89%
    01:00 +6°C° 0 mm 1 m/S 619 mmHg 89%
    02:00 +6°C° 0 mm 1 m/S 619 mmHg 88%
    03:00 +6°C° 0 mm 1 m/S 619 mmHg 88%
    04:00 +6°C° 0 mm 1 m/S 619 mmHg 86%
    05:00 +7°C° 0 mm 1 m/S 620 mmHg 84%
    06:00 +7°C° 0 mm 0 m/S 620 mmHg 82%
    07:00 +10°C° 0 mm 1 m/S 621 mmHg 75%
    08:00 +12°C° 0 mm 1 m/S 622 mmHg 69%
    09:00 +14°C° 0 mm 1 m/S 623 mmHg 62%
    10:00 +14°C° 0,1 mm 1 m/S 623 mmHg 60%
    11:00 +15°C° 0,1 mm 2 m/S 623 mmHg 59%
    12:00 +15°C° 0,1 mm 2 m/S 623 mmHg 57%
    13:00 +15°C° 0,2 mm 2 m/S 623 mmHg 57%
    14:00 +16°C° 0,2 mm 2 m/S 623 mmHg 57%
    15:00 +16°C° 0,2 mm 2 m/S 623 mmHg 58%
    16:00 +15°C° 0,6 mm 2 m/S 622 mmHg 64%
    17:00 +14°C° 0,6 mm 1 m/S 622 mmHg 71%
    18:00 +13°C° 0,6 mm 1 m/S 621 mmHg 78%
    19:00 +12°C° 0,3 mm 1 m/S 621 mmHg 82%
    20:00 +10°C° 0,3 mm 1 m/S 621 mmHg 86%
    21:00 +9°C° 0,3 mm 1 m/S 621 mmHg 90%
    22:00 +9°C° 0 mm 1 m/S 620 mmHg 90%
    23:00 +8°C° 0 mm 1 m/S 620 mmHg 90%

    24 Mai, Donnerstag

    Zeit Temperatur Niederschläge Wind Luftdruck Luftfeuchtigkeit
    00:00 +8°C° 0 mm 1 m/S 620 mmHg 90%
    01:00 +8°C° 0 mm 1 m/S 620 mmHg 90%
    02:00 +8°C° 0 mm 1 m/S 619 mmHg 89%
    03:00 +7°C° 0 mm 1 m/S 619 mmHg 88%
    04:00 +8°C° 0 mm 1 m/S 620 mmHg 85%
    05:00 +9°C° 0 mm 1 m/S 620 mmHg 82%
    06:00 +10°C° 0 mm 1 m/S 620 mmHg 80%
    07:00 +12°C° 0 mm 1 m/S 621 mmHg 72%
    08:00 +14°C° 0 mm 2 m/S 622 mmHg 64%
    09:00 +16°C° 0 mm 2 m/S 623 mmHg 56%
    10:00 +17°C° 0,1 mm 2 m/S 623 mmHg 54%
    11:00 +18°C° 0,1 mm 3 m/S 623 mmHg 52%
    12:00 +18°C° 0,1 mm 3 m/S 624 mmHg 50%
    13:00 +18°C° 0,1 mm 3 m/S 623 mmHg 49%
    14:00 +18°C° 0,1 mm 3 m/S 623 mmHg 49%
    15:00 +19°C° 0,1 mm 3 m/S 623 mmHg 48%
    16:00 +17°C° 0,1 mm 3 m/S 623 mmHg 54%
    17:00 +16°C° 0,1 mm 2 m/S 622 mmHg 60%
    18:00 +15°C° 0,1 mm 2 m/S 621 mmHg 65%
    19:00 +13°C° 0 mm 2 m/S 621 mmHg 69%
    20:00 +10°C° 0 mm 2 m/S 621 mmHg 74%
    21:00 +10°C° 0 mm 1 m/S 620 mmHg 78%
    22:00 +9°C° 0 mm 1 m/S 620 mmHg 74%
    23:00 +9°C° 0 mm 1 m/S 620 mmHg 71%

    25 Mai, Freitag

    Zeit Temperatur Niederschläge Wind Luftdruck Luftfeuchtigkeit
    00:00 +8°C° 0 mm 2 m/S 620 mmHg 67%
    01:00 +8°C° 0 mm 2 m/S 619 mmHg 67%
    02:00 +7°C° 0 mm 2 m/S 619 mmHg 67%
    03:00 +7°C° 0 mm 2 m/S 619 mmHg 68%
    04:00 +8°C° 0 mm 2 m/S 619 mmHg 66%
    05:00 +9°C° 0 mm 2 m/S 620 mmHg 65%
    06:00 +10°C° 0 mm 2 m/S 620 mmHg 64%
    07:00 +13°C° 0 mm 2 m/S 621 mmHg 57%
    08:00 +16°C° 0 mm 2 m/S 622 mmHg 51%
    09:00 +18°C° 0 mm 3 m/S 623 mmHg 44%
    10:00 +19°C° 0,1 mm 3 m/S 623 mmHg 43%
    11:00 +20°C° 0,1 mm 3 m/S 624 mmHg 42%
    12:00 +20°C° 0,1 mm 3 m/S 624 mmHg 41%
    13:00 +20°C° 0 mm 4 m/S 624 mmHg 41%
    14:00 +20°C° 0 mm 4 m/S 623 mmHg 41%
    15:00 +20°C° 0 mm 4 m/S 623 mmHg 41%
    16:00 +19°C° 0 mm 4 m/S 622 mmHg 46%
    17:00 +18°C° 0 mm 3 m/S 622 mmHg 51%
    18:00 +16°C° 0 mm 3 m/S 621 mmHg 56%
    19:00 +14°C° 0 mm 2 m/S 621 mmHg 57%
    20:00 +13°C° 0 mm 2 m/S 620 mmHg 59%
    21:00 +10°C° 0 mm 2 m/S 620 mmHg 60%
    22:00 +9°C° 0 mm 2 m/S 620 mmHg 58%
    23:00 +9°C° 0 mm 2 m/S 620 mmHg 56%

    26 Mai, Samstag

    Zeit Temperatur Niederschläge Wind Luftdruck Luftfeuchtigkeit
    00:00 +9°C° 0 mm 2 m/S 620 mmHg 53%
    01:00 +9°C° 0 mm 2 m/S 620 mmHg 54%
    02:00 +9°C° 0 mm 2 m/S 620 mmHg 55%
    03:00 +9°C° 0 mm 2 m/S 620 mmHg 56%
    04:00 +9°C° 0 mm 2 m/S 620 mmHg 58%
    05:00 +10°C° 0 mm 2 m/S 621 mmHg 60%
    06:00 +12°C° 0 mm 2 m/S 621 mmHg 62%
    07:00 +14°C° 0 mm 2 m/S 622 mmHg 55%
    08:00 +16°C° 0 mm 3 m/S 623 mmHg 49%
    09:00 +18°C° 0 mm 3 m/S 624 mmHg 42%
    10:00 +20°C° 0 mm 4 m/S 624 mmHg 40%
    11:00 +21°C° 0 mm 4 m/S 624 mmHg 37%
    12:00 +22°C° 0 mm 5 m/S 625 mmHg 35%
    13:00 +22°C° 0 mm 5 m/S 624 mmHg 35%
    14:00 +22°C° 0 mm 5 m/S 624 mmHg 35%
    15:00 +22°C° 0 mm 5 m/S 624 mmHg 36%
    16:00 +20°C° 0 mm 4 m/S 623 mmHg 41%
    17:00 +19°C° 0 mm 4 m/S 623 mmHg 47%
    18:00 +17°C° 0 mm 3 m/S 622 mmHg 52%
    19:00 +14°C° 0 mm 3 m/S 622 mmHg 53%
    20:00 +13°C° 0 mm 3 m/S 621 mmHg 54%
    21:00 +12°C° 0 mm 2 m/S 621 mmHg 55%
    22:00 +12°C° 0 mm 2 m/S 621 mmHg 53%
    23:00 +10°C° 0 mm 2 m/S 620 mmHg 52%
    Mehr zeigen